Weather History for Westhampton Beach, NY

Change the Weather History Date:

Thursday, February 21, 2013

  Actual Average Record
Temperature  
Mean Temperature 28 °F -  
Max Temperature 36 °F 38 °F 59 °F (2002)
Min Temperature 21 °F 22 °F 6 °F (2003)
Degree Days  
Heating Degree Days 36    
Moisture  
Dew Point 12 °F    
Average Humidity 50    
Maximum Humidity 61    
Minimum Humidity 39    
Precipitation  
Precipitation 0.00 in - - ()
Sea Level Pressure  
Sea Level Pressure 30.02 in    
Wind  
Wind Speed 14 mph (NW)    
Max Wind Speed 24 mph    
Max Gust Speed 36 mph    
Visibility 10 miles    
Events      
Averages and records for this station are not official NWS values.
T = Trace of Precipitation, MM = Missing Value Source: NWS Daily Summary

Daily Weather History Graph

Daily Weather History Graph

Search for Another Location

Airport:

Trip Planner

Search our weather history database for the weather conditions in past years. The results will help you decide how hot, cold, wet, or windy it might be!

Date:

Astronomy

Feb. 21, 2013 Rise Set
Actual Time 6:36 AM EST 5:32 PM EST
Civil Twilight 6:08 AM EST 6:00 PM EST
Nautical Twilight 5:36 AM EST 6:32 PM EST
Astronomical Twilight 5:04 AM EST 7:04 PM EST
Moon 1:43 PM EST (2/21) 3:39 AM EST (2/21)
Length of Visible Light 11h 52m
Length of Day
10h 56m
Waxing Gibbous, 83% of the Moon is Illuminated
Feb 21
Waxing Gibbous
Feb 25
Full
Mar 4
Last Quarter
Mar 11
New
Mar 19
First Quarter

Hourly Weather History & Observations

Time (EST) Temp. Windchill Dew Point Humidity Pressure Visibility Wind Dir Wind Speed Gust Speed Precip Events Conditions
12:53 AM 25.0 °F 15.5 °F 10.0 °F 53% 29.95 in 10.0 mi West 9.2 mph - N/A   Clear
1:53 AM 25.0 °F 15.5 °F 10.0 °F 53% 29.95 in 10.0 mi WNW 9.2 mph - N/A   Clear
2:53 AM 23.0 °F 14.7 °F 10.0 °F 58% 29.95 in 10.0 mi West 6.9 mph - N/A   Clear
3:53 AM 21.9 °F 11.7 °F 10.0 °F 60% 29.96 in 10.0 mi WSW 9.2 mph - N/A   Clear
4:53 AM 23.0 °F 12.4 °F 10.0 °F 58% 29.95 in 10.0 mi WNW 10.4 mph - N/A   Clear
5:53 AM 24.1 °F 12.5 °F 10.9 °F 57% 29.96 in 10.0 mi WNW 12.7 mph - N/A   Clear
6:53 AM 25.0 °F 11.3 °F 10.0 °F 53% 29.96 in 10.0 mi WNW 18.4 mph 24.2 mph N/A   Mostly Cloudy
7:53 AM 26.1 °F 13.6 °F 10.0 °F 51% 29.97 in 10.0 mi West 16.1 mph - N/A   Clear
8:53 AM 28.9 °F 17.3 °F 10.0 °F 45% 29.96 in 10.0 mi NW 16.1 mph 28.8 mph N/A   Clear
9:53 AM 30.0 °F 16.9 °F 10.0 °F 43% 29.94 in 10.0 mi WNW 21.9 mph 33.4 mph N/A   Clear
10:53 AM 32.0 °F 18.9 °F 10.9 °F 42% 29.95 in 10.0 mi WNW 24.2 mph 34.5 mph N/A   Clear
11:53 AM 33.1 °F 20.6 °F 10.9 °F 40% 29.95 in 10.0 mi WNW 23.0 mph 29.9 mph N/A   Clear
12:53 PM 35.1 °F 23.5 °F 12.0 °F 39% 29.93 in 10.0 mi WNW 21.9 mph 32.2 mph N/A   Clear
2:53 PM 35.1 °F 23.0 °F 12.9 °F 40% 29.94 in 10.0 mi WNW 24.2 mph 32.2 mph N/A   Clear
3:53 PM 36.0 °F 27.1 °F 14.0 °F 41% 29.95 in 10.0 mi NW 13.8 mph 26.5 mph N/A   Clear
4:53 PM 33.1 °F 22.2 °F 14.0 °F 46% 30.00 in 10.0 mi NW 17.3 mph 35.7 mph N/A   Clear
5:53 PM 30.9 °F 19.8 °F 12.9 °F 47% 30.04 in 10.0 mi NNW 16.1 mph 27.6 mph N/A   Clear
6:53 PM 28.9 °F 15.4 °F 12.0 °F 49% 30.08 in 10.0 mi NNW 21.9 mph 35.7 mph N/A   Clear
7:53 PM 27.0 °F 13.5 °F 12.0 °F 53% 30.12 in 10.0 mi NNW 19.6 mph 28.8 mph N/A   Clear
8:53 PM 27.0 °F 13.9 °F 12.0 °F 53% 30.18 in 10.0 mi NW 18.4 mph 26.5 mph N/A   Clear
9:53 PM 27.0 °F 13.5 °F 12.9 °F 56% 30.21 in 10.0 mi NNW 19.6 mph 24.2 mph N/A   Clear
10:53 PM 26.1 °F 15.6 °F 14.0 °F 60% 30.24 in 10.0 mi NNW 11.5 mph 21.9 mph N/A   Clear
11:53 PM 27.0 °F 15.6 °F 15.1 °F 61% 30.26 in 10.0 mi NNW 13.8 mph 23.0 mph N/A   Clear